Theta_e
330 331 330 330 329 329 329 329 329 328 328 328 328 328 328 328 328 327 327 326 323 321 320 321 322 321 321 320 319 319 319 318 318 317 317 318 317 317 317 317 316 316 315 315 313 311 308 304 302 300 300 300 301 301 302 306 313 317 319 319 319 319 318 318 318 317 317 317 316 316 318 318 318 319 318 317 317 316 313 312 312 311 312 312 309
330 330 330 329 329 329 329 329 329 328 328 328 327 327 328 327 327 327 326 325 322 321 320 320 321 321 319 319 319 318 318 318 318 318 318 318 317 317 317 317 316 316 316 316 315 315 314 312 308 304 301 299 299 300 300 301 303 307 312 315 317 318 317 317 317 317 317 317 316 316 316 316 317 318 318 318 318 317 316 316 315 314 314 313 311
330 329 329 329 330 329 328 328 328 328 328 329 328 327 327 327 327 326 325 324 322 321 320 320 321 320 319 319 318 317 318 319 318 318 317 317 316 315 315 315 314 314 314 313 313 313 313 313 312 310 306 302 299 299 299 301 301 301 302 306 311 313 315 316 317 317 316 316 315 315 316 316 316 317 318 318 318 318 317 317 316 314 314 314 314
330 330 330 331 330 327 326 325 326 328 329 329 328 328 327 326 326 326 324 322 321 321 321 321 321 320 319 318 316 317 318 319 318 318 316 315 314 313 312 312 311 311 310 310 310 310 310 310 310 310 309 306 303 301 300 300 301 300 300 300 301 304 307 309 312 313 313 312 310 310 310 310 311 314 317 317 318 318 318 317 316 315 315 314 314
329 330 329 329 326 324 325 326 326 329 329 329 328 327 326 326 325 324 322 321 322 321 320 321 321 320 319 317 317 317 318 318 318 316 315 314 312 310 310 309 309 309 308 308 308 308 308 309 309 308 308 308 306 305 304 304 303 302 301 301 301 302 302 302 303 304 304 304 303 303 302 302 303 307 313 317 317 317 317 316 316 316 315 314 314
327 326 326 326 324 325 328 329 328 329 328 328 327 326 324 324 323 321 320 320 321 320 320 321 320 319 318 318 318 318 317 317 316 315 314 312 310 308 308 307 307 307 306 306 306 306 306 306 306 306 307 307 307 307 307 307 306 306 305 305 305 305 304 303 301 300 300 300 299 300 299 299 299 300 305 311 315 317 317 316 316 316 313 313 315
322 322 325 327 327 327 328 328 327 327 326 325 324 323 322 321 320 320 319 320 321 320 320 319 319 319 318 317 317 316 316 315 314 313 311 309 307 306 305 305 304 303 302 302 301 301 301 301 301 302 302 303 304 304 305 305 306 307 307 306 306 305 304 303 303 301 300 300 299 299 299 299 299 298 299 302 307 313 316 316 316 315 313 313 314
320 321 326 328 326 326 326 325 325 324 323 322 322 321 320 320 319 319 319 320 320 319 318 318 318 318 317 317 316 314 314 313 311 309 307 305 304 303 301 300 299 299 298 298 297 297 297 297 297 297 298 298 299 299 300 300 302 303 304 304 304 304 304 304 303 303 302 302 302 301 300 300 299 298 298 298 299 304 310 314 315 315 314 313 312
319 320 324 325 324 324 323 323 322 322 322 321 321 321 320 320 319 319 318 317 316 317 317 316 316 316 315 314 313 312 311 309 307 304 303 302 300 299 297 296 296 295 295 295 294 294 294 295 295 295 295 295 295 295 296 296 296 298 299 300 301 300 301 302 300 299 300 300 301 302 302 302 301 300 300 299 298 298 301 306 311 314 315 313 312
319 320 322 323 323 322 322 322 322 322 322 322 322 321 320 319 318 317 316 315 315 316 316 315 315 314 313 312 310 309 307 305 303 302 300 299 297 296 295 294 294 294 294 293 293 293 293 293 293 293 293 294 293 293 294 294 294 294 294 295 296 296 297 298 297 295 295 296 296 298 298 299 300 301 301 301 300 299 298 299 302 306 310 313 313
322 322 322 323 323 322 322 322 322 322 322 321 320 319 318 315 312 311 311 312 313 314 315 314 313 312 311 309 308 306 305 303 303 301 299 297 295 294 293 293 293 293 293 293 293 292 293 293 293 293 293 292 292 292 292 292 293 292 292 292 293 293 293 295 294 293 292 292 293 293 294 295 295 297 298 299 300 301 301 300 299 299 301 306 309
322 323 323 323 323 323 322 322 322 321 319 316 314 313 311 308 306 306 306 307 308 309 311 312 311 311 309 308 306 304 304 303 302 301 300 299 297 295 293 293 292 292 292 292 292 292 292 292 292 292 292 292 292 292 292 292 292 292 292 291 291 292 292 293 293 292 291 291 291 291 292 292 292 293 293 295 296 297 299 300 301 300 299 299 300
322 322 322 322 322 321 321 320 318 315 312 309 308 307 306 304 303 303 302 302 304 306 308 310 309 308 307 306 305 303 303 301 300 300 300 299 298 296 293 292 292 292 292 292 292 292 292 292 292 291 291 291 291 291 291 291 291 291 291 291 291 291 291 291 292 291 291 291 291 291 291 291 291 291 291 292 292 293 294 296 297 299 300 300 299
321 321 321 321 319 318 317 314 310 308 306 305 304 303 302 301 301 300 300 300 301 304 306 308 307 306 305 305 304 302 300 298 297 297 297 296 296 294 292 291 292 292 291 291 291 291 291 291 291 291 291 291 291 291 291 291 291 291 291 291 290 290 290 290 290 290 290 290 290 290 290 290 291 291 291 291 291 291 292 292 293 294 296 298 300
320 319 317 315 313 311 309 307 305 304 304 303 302 301 300 299 298 298 298 298 299 302 305 306 305 305 305 305 303 301 298 295 294 295 294 294 293 291 291 291 291 291 291 291 291 291 291 291 291 290 290 290 290 290 290 290 290 290 290 290 290 290 290 290 289 290 290 289 290 290 289 290 290 290 290 290 290 291 291 291 291 292 293 294 296
315 312 310 308 306 305 304 303 302 301 301 300 300 299 298 298 297 297 297 297 298 301 304 306 306 304 304 304 303 301 298 294 292 293 293 292 291 291 291 291 291 291 291 291 291 291 290 290 290 290 290 289 289 289 289 289 289 289 289 289 289 289 289 289 289 289 289 289 289 289 289 289 289 289 289 290 290 290 290 291 291 291 291 292 293
307 306 305 304 303 302 301 301 300 299 299 298 298 298 297 297 297 296 296 296 297 298 300 303 304 302 301 302 300 298 295 292 291 293 292 290 290 291 290 290 291 291 290 290 290 290 290 290 289 289 289 289 289 289 289 289 288 288 288 288 288 288 288 288 288 288 288 288 288 288 288 288 288 288 289 289 289 289 289 290 290 291 291 291 292
304 303 302 302 301 300 299 299 299 298 297 297 298 297 297 297 296 296 296 296 295 295 296 297 297 296 296 296 294 293 292 291 291 292 291 291 291 290 290 290 290 290 290 290 290 289 289 289 289 289 288 288 288 288 288 288 287 287 287 287 287 287 287 287 287 287 287 287 287 287 287 288 288 288 288 288 288 288 289 289 289 290 290 291 291
302 301 300 300 299 298 298 298 298 297 297 297 297 297 297 297 296 296 296 296 295 295 295 294 294 293 293 293 292 292 292 292 291 291 291 291 291 290 290 290 290 289 289 289 289 289 289 289 288 288 288 287 288 288 287 287 287 287 286 286 286 286 286 286 286 286 286 286 287 287 287 287 287 287 287 287 288 288 288 288 289 290 290 290 290
300 299 298 298 298 297 297 297 297 297 297 297 297 296 296 296 296 295 295 295 294 294 294 294 293 293 293 292 292 292 292 291 291 291 290 290 290 290 290 289 289 289 289 288 288 288 288 288 287 287 287 287 287 287 287 286 286 286 286 286 286 286 286 286 286 286 286 286 286 286 286 286 286 286 287 287 287 287 287 288 288 289 290 290 290
298 298 297 297 297 297 297 296 297 297 296 296 296 296 295 295 295 294 294 294 294 294 293 293 293 292 292 292 292 291 291 291 290 290 289 289 289 289 289 289 289 288 288 288 287 287 287 287 287 287 286 286 286 286 286 285 285 285 285 285 285 285 286 286 286 286 286 286 286 286 285 286 285 285 286 286 286 286 286 287 287 288 289 290 290
297 297 297 296 296 296 296 296 296 296 296 296 296 295 295 294 294 294 294 294 293 293 293 292 292 292 292 291 291 291 290 290 290 289 289 289 288 288 288 288 288 288 287 287 287 287 287 286 286 286 286 286 286 285 285 285 284 284 285 285 285 285 285 285 285 285 285 285 285 285 285 285 285 285 285 285 285 285 286 286 286 287 288 288 290
297 296 296 296 296 296 296 296 296 296 296 296 295 295 295 294 294 294 294 293 293 293 292 292 292 292 291 291 291 290 290 290 289 289 289 288 288 288 288 288 288 288 287 287 287 287 286 286 286 286 286 285 285 285 285 284 284 285 285 285 285 285 285 285 285 285 284 285 285 285 285 285 285 285 285 285 285 285 285 286 286 287 288 289 290
296 296 296 296 296 296 296 296 296 296 295 295 295 295 295 294 294 294 294 293 293 292 292 292 292 291 291 291 290 290 290 289 289 289 288 288 288 288 288 287 287 287 287 287 287 287 286 286 286 285 285 285 284 284 284 284 285 285 285 285 285 284 284 284 284 284 284 285 285 285 284 285 285 285 285 285 285 285 285 285 286 287 288 289 289
296 296 296 295 295 296 296 296 296 296 295 295 295 295 295 294 294 294 293 293 293 292 292 292 292 291 291 291 290 289 289 289 288 288 288 288 288 287 287 287 287 287 287 287 287 286 286 286 285 285 285 284 284 284 284 284 285 285 285 284 284 284 284 284 284 284 284 284 284 284 284 284 284 284 284 284 284 284 285 285 285 285 286 287 287
296 296 296 296 295 296 296 296 296 296 296 296 295 295 295 294 294 294 293 293 292 292 292 292 291 291 291 290 289 289 288 288 288 288 288 287 287 287 287 287 287 287 287 287 287 286 286 285 285 285 285 284 284 284 284 284 284 284 284 284 284 284 284 284 284 284 284 284 284 284 284 284 284 284 284 284 284 284 284 284 284 284 285 285 285
296 296 296 296 296 296 296 296 296 296 296 296 295 295 295 294 294 293 293 292 292 292 292 291 291 291 290 290 289 288 288 288 288 288 287 287 287 287 287 287 287 287 287 286 286 286 286 285 285 285 284 284 284 284 284 284 284 284 284 284 284 284 284 284 284 284 283 283 283 283 283 283 283 283 283 283 283 283 283 283 283 284 284 284 284
296 296 296 296 296 296 296 296 296 296 296 295 295 295 294 294 293 293 293 292 292 291 291 291 291 290 290 289 289 288 288 288 287 287 287 287 287 287 287 286 286 286 286 286 286 286 285 285 285 284 284 284 284 284 284 284 284 284 284 284 284 284 284 284 284 284 283 283 283 282 282 282 282 282 282 282 282 282 283 283 283 283 283 283 284
296 296 296 296 296 296 296 296 296 296 295 295 294 294 294 293 293 293 292 292 291 291 291 291 290 290 289 289 288 288 287 287 287 287 286 286 286 286 286 286 286 285 285 285 285 285 285 284 284 284 284 284 284 284 284 284 284 284 284 284 284 284 283 283 283 283 283 283 282 282 282 282 282 282 282 282 282 282 282 282 282 282 282 283 284
296 296 296 296 296 296 296 295 295 295 294 294 294 293 293 293 292 292 292 291 291 291 291 290 290 290 289 288 288 287 287 287 286 286 286 286 286 286 286 285 285 285 284 284 285 285 285 284 284 284 284 284 284 284 284 284 284 284 284 284 284 284 283 283 283 283 282 282 282 282 282 282 281 281 281 281 281 281 281 281 281 282 282 282 283
296 296 296 296 297 296 296 295 294 294 294 294 293 293 292 292 292 292 291 291 291 290 290 290 289 289 288 288 287 287 287 286 286 286 286 286 286 286 285 285 284 284 284 284 284 285 285 284 283 283 283 284 284 284 284 284 284 284 284 284 284 284 284 283 283 282 282 282 282 281 281 281 281 281 281 281 280 280 280 281 281 281 282 282 282
295 295 296 296 296 296 295 294 294 294 294 293 293 292 292 292 291 291 291 291 290 290 290 289 289 288 288 287 287 287 286 286 286 286 286 286 285 285 285 284 284 284 284 283 284 284 284 284 283 283 283 283 284 284 284 284 284 284 284 284 284 283 283 283 283 282 282 282 281 281 281 281 281 281 281 280 280 280 280 280 280 280 281 281 282
295 295 296 296 295 295 294 294 293 293 293 292 292 292 292 291 291 291 290 290 290 290 290 289 289 288 288 287 287 287 286 286 286 286 286 285 285 285 285 284 283 283 283 283 283 284 284 284 283 283 283 283 284 284 284 284 284 284 284 284 283 283 283 283 282 282 282 281 281 281 281 281 280 280 280 280 280 279 279 279 280 280 280 280 281
295 295 296 295 294 294 293 293 293 292 292 292 292 292 291 291 290 290 290 290 290 290 289 289 288 288 287 287 287 287 286 286 286 285 285 285 285 285 284 284 283 283 283 283 283 283 284 284 283 283 283 283 284 284 284 284 284 284 284 283 283 283 282 282 282 281 281 281 281 280 280 280 280 280 280 279 279 279 279 279 279 279 280 280 280
295 295 295 294 294 293 293 293 292 292 291 291 291 291 290 290 290 290 290 289 289 289 289 289 289 288 288 287 287 287 286 286 286 285 285 285 285 284 284 283 283 283 283 283 283 283 283 283 283 283 283 284 284 284 283 283 283 283 283 283 283 282 282 282 281 281 281 280 280 280 280 280 280 279 279 279 279 279 278 278 279 279 279 279 279
295 295 294 294 293 293 293 293 292 291 291 291 291 290 290 289 289 289 289 289 289 289 289 289 288 288 288 287 287 287 286 286 285 285 285 285 285 284 284 283 283 283 283 283 283 283 283 283 283 283 283 283 283 283 283 283 283 283 283 282 282 282 282 281 280 280 280 280 280 280 280 279 279 279 279 279 278 278 278 278 278 279 279 279 279
294 294 294 293 293 293 293 292 291 291 291 290 290 290 290 289 289 289 289 289 289 289 289 289 288 288 288 287 287 287 286 286 285 285 285 285 285 284 283 283 283 282 282 282 282 282 282 283 283 283 283 283 283 283 283 283 283 283 283 282 282 281 281 281 280 280 279 280 280 280 280 279 279 279 278 278 278 277 278 278 278 278 278 278 278
294 294 293 293 293 293 292 292 291 290 290 290 290 289 289 289 289 289 289 289 289 289 289 289 288 288 288 287 287 287 286 286 286 285 285 285 284 284 283 283 282 282 282 282 282 282 282 283 283 283 283 283 283 283 283 282 282 282 282 282 281 281 280 280 280 279 279 279 280 280 279 279 279 278 277 277 277 277 277 277 278 278 277 277 277
294 293 293 293 293 292 292 291 290 290 290 290 289 289 289 289 289 289 289 289 289 289 289 289 288 288 288 287 287 287 287 286 286 285 285 285 284 284 283 283 282 282 282 282 282 282 282 283 283 283 283 283 283 283 282 281 281 280 280 280 281 281 280 279 278 277 277 278 279 279 279 278 277 277 277 277 276 276 277 277 277 277 277 276 277
293 293 293 292 292 291 291 290 290 290 289 289 289 289 289 289 289 289 289 289 289 289 289 288 288 288 288 287 287 287 287 286 286 285 285 285 285 284 283 282 282 282 282 282 282 282 282 282 283 283 283 283 283 282 281 280 280 280 279 278 279 279 279 278 277 276 276 277 278 278 278 277 276 276 276 276 276 276 276 276 276 276 276 276 277
293 292 292 291 291 291 290 290 290 289 289 289 289 289 289 289 289 289 289 289 289 289 288 288 288 288 288 287 287 287 287 286 286 285 285 285 285 284 283 282 282 282 282 282 282 282 282 282 282 282 282 282 282 281 280 280 279 279 278 277 277 277 277 276 277 276 276 276 276 277 276 275 275 276 276 276 276 276 276 276 276 276 276 276 277
292 291 291 290 290 290 290 289 289 289 289 289 289 288 288 289 289 289 289 289 289 288 288 288 288 288 288 287 287 287 287 286 286 286 285 285 285 284 283 282 282 282 282 282 282 282 282 282 282 282 281 282 280 279 279 279 278 277 277 276 276 276 275 275 276 276 276 276 276 276 276 275 275 275 275 275 276 276 276 276 275 275 276 277 277
291 291 290 290 290 289 289 289 289 289 289 289 288 288 288 288 288 289 289 288 288 288 288 287 287 287 287 287 287 287 286 286 286 286 285 285 284 284 283 282 282 282 282 282 282 282 282 282 281 281 280 280 280 279 278 278 277 276 276 275 275 275 275 275 276 276 276 275 275 275 276 275 275 275 275 275 275 276 275 275 275 275 276 277 277
291 290 290 289 289 289 289 289 289 288 288 288 288 288 288 288 288 288 288 288 288 288 287 287 287 287 287 287 287 287 286 286 286 286 285 285 285 284 283 282 282 282 281 281 281 282 281 281 280 280 280 280 279 278 277 277 276 275 275 275 275 275 275 275 275 275 275 275 275 275 275 274 274 274 274 275 275 275 275 275 275 275 276 276 277
290 290 289 289 289 289 288 288 288 288 288 288 288 288 288 288 288 288 288 288 288 287 287 286 286 286 287 287 287 286 286 286 286 286 285 285 285 284 283 282 282 281 281 281 281 281 281 280 280 280 279 279 278 278 276 275 275 275 275 275 275 275 274 274 274 275 275 275 275 275 274 274 274 274 275 275 274 274 274 274 274 275 275 276 276
290 289 289 289 289 288 288 288 288 288 288 288 288 288 288 288 288 288 288 287 287 287 286 286 286 286 286 287 287 286 286 286 286 285 285 285 285 284 284 283 282 281 281 281 281 281 280 279 280 280 279 277 277 277 276 275 275 275 275 274 274 274 274 274 275 275 275 275 275 274 273 273 273 274 274 274 273 273 273 273 274 274 275 276 276
290 289 289 289 288 288 288 288 288 288 288 288 288 288 288 288 288 288 287 287 287 286 286 286 286 286 286 286 287 286 286 286 286 285 285 285 285 285 284 283 282 281 281 281 281 280 280 280 280 279 278 276 276 276 276 275 275 275 275 274 274 274 274 275 275 275 276 275 275 273 272 272 272 272 273 273 273 272 272 273 274 274 274 275 275
289 289 288 288 288 288 288 288 288 288 288 288 287 288 288 288 288 287 287 287 287 286 286 286 286 286 286 286 286 286 286 286 285 285 285 285 285 285 284 284 283 282 281 281 280 280 280 280 280 278 277 276 276 276 275 275 275 275 275 275 275 274 274 275 275 276 276 276 275 272 271 271 271 271 272 272 271 271 272 273 274 274 275 274 274
289 289 288 288 288 288 287 287 287 287 287 287 287 287 287 287 287 287 287 287 287 286 286 286 286 287 287 286 286 286 286 286 285 285 285 285 285 285 284 284 283 282 281 281 280 280 280 279 278 277 277 276 275 275 275 275 274 274 275 275 275 274 274 275 275 275 275 275 274 272 270 271 271 271 271 271 270 271 272 273 273 274 274 274 274
290 289 288 288 288 287 287 287 287 287 287 287 287 287 287 287 287 287 287 287 286 286 286 287 287 287 287 287 286 286 286 286 285 285 285 284 285 284 284 284 283 282 281 280 280 280 279 279 278 277 276 276 275 274 274 274 274 274 274 274 274 274 274 274 274 274 275 275 274 272 271 271 270 270 270 270 270 271 272 272 272 273 273 274 275
289 289 288 288 287 287 287 287 287 287 287 287 287 287 287 287 287 286 286 286 286 286 287 287 287 287 287 287 286 286 286 286 285 285 285 284 284 284 284 283 283 282 281 280 279 279 279 279 278 277 276 275 274 274 274 274 274 274 274 274 274 274 274 274 274 274 274 275 274 271 270 270 269 269 269 269 269 270 271 271 271 271 272 272 273
Wind_Speed
10 10 9 8 8 7 4 4 5 4 2 1 1 3 5 3 1 4 4 6 8 8 7 7 7 8 10 11 9 9 9 8 7 8 9 9 9 10 10 10 10 10 10 10 11 11 11 12 12 12 13 12 12 11 11 12 12 12 13 14 13 14 14 14 13 13 13 13 13 12 10 10 11 13 16 16 14 13 13 15 18 16 12 12 15
11 10 10 9 9 7 5 6 6 5 4 2 2 3 4 2 2 4 4 5 7 7 7 7 7 8 10 10 8 8 9 8 8 9 10 11 13 14 13 12 12 12 12 12 12 11 11 11 11 11 12 12 13 13 13 13 14 14 15 16 16 17 17 16 16 17 17 17 18 17 15 14 13 11 13 15 15 15 14 16 20 17 13 14 16
11 11 10 10 10 9 7 7 6 6 6 5 4 4 4 4 4 4 3 4 6 5 5 5 5 7 9 9 7 7 8 8 8 10 12 15 17 17 16 14 14 13 13 13 12 12 11 11 10 11 11 11 11 11 12 13 14 14 15 16 17 18 18 18 19 20 20 21 21 20 20 19 17 13 12 13 13 13 14 17 20 17 14 16 17
14 13 12 12 11 10 8 7 8 9 10 9 7 6 5 5 5 5 6 6 4 2 3 4 4 7 10 9 7 7 7 6 8 11 15 18 19 18 16 15 15 14 13 12 12 12 11 11 11 10 10 10 10 11 11 12 13 14 14 15 16 17 18 19 20 21 22 22 23 23 22 21 20 17 15 14 13 13 14 16 17 16 16 19 20
15 15 14 12 10 8 7 8 11 12 12 9 8 7 7 7 8 8 7 4 2 1 2 3 4 8 9 8 8 8 7 6 9 13 15 18 19 16 14 14 14 14 13 13 13 12 12 12 11 11 11 11 11 11 12 11 12 13 13 14 14 14 15 16 17 19 20 21 22 22 22 22 20 19 18 18 17 16 15 15 15 13 15 19 20
15 14 12 9 7 6 8 10 11 11 10 10 10 9 9 8 8 7 4 2 1 1 2 2 5 7 5 4 5 5 6 8 10 13 15 17 15 13 12 13 13 13 14 14 13 13 13 12 12 12 11 11 11 10 11 11 12 13 12 12 12 12 13 15 16 18 19 20 21 20 21 20 20 19 19 20 20 19 18 17 17 15 16 18 17
14 12 9 9 9 8 9 9 9 9 9 9 9 8 7 6 5 3 2 3 3 2 2 3 4 3 2 2 3 4 6 9 12 13 13 13 10 10 11 11 12 13 14 14 14 14 14 13 13 13 12 12 11 10 10 10 11 13 12 12 12 12 14 16 17 18 19 19 20 20 20 19 19 19 19 20 21 22 21 21 21 20 20 19 18
12 11 11 11 11 10 10 10 9 8 8 8 7 6 5 4 4 4 4 5 5 3 3 3 2 1 1 2 3 5 8 9 10 10 9 8 8 10 10 11 12 12 13 13 13 13 13 13 13 13 12 12 11 10 10 10 9 10 11 13 13 12 15 16 16 17 17 18 19 20 20 19 19 19 19 19 20 22 23 24 23 23 22 22 21
11 11 13 12 11 12 11 11 10 9 9 8 7 6 4 4 4 5 6 5 4 3 3 3 3 3 1 1 2 4 6 6 6 6 6 7 8 9 10 11 11 11 11 11 12 12 12 11 11 11 11 11 11 10 10 9 9 8 9 11 12 12 14 16 16 15 15 16 16 18 19 19 19 19 19 19 20 20 22 23 25 25 25 25 23
11 11 13 12 12 12 12 11 11 10 9 7 5 5 4 3 3 4 4 3 3 4 5 5 4 4 2 1 1 2 2 3 4 5 5 7 8 9 9 10 9 10 10 10 10 10 10 10 10 10 10 10 10 10 9 9 8 8 8 9 10 11 12 15 15 14 14 14 15 15 16 17 18 18 19 19 20 20 20 21 23 25 26 27 26
12 12 11 11 11 11 10 10 9 8 6 5 4 3 2 2 3 5 6 5 5 5 6 6 6 5 3 2 3 2 3 4 4 4 4 6 7 7 8 8 9 9 10 10 11 11 11 11 11 11 11 11 11 10 10 10 9 9 9 8 10 11 12 14 15 14 13 14 14 15 15 16 16 16 17 18 18 19 20 20 21 22 24 26 28
12 12 10 10 10 9 9 9 8 6 5 4 4 4 5 6 8 9 8 7 7 6 6 6 6 6 5 4 4 4 4 3 2 2 3 3 5 5 7 8 9 10 11 12 13 13 13 13 13 13 12 12 11 11 10 10 10 9 10 10 10 12 13 15 16 16 15 15 15 15 16 16 16 16 16 16 17 18 18 19 20 21 22 24 26
12 11 10 10 10 9 8 8 7 6 6 7 7 8 8 8 8 9 9 7 8 8 7 6 5 6 6 6 5 4 3 2 2 2 3 4 5 7 9 10 11 12 13 14 14 14 14 15 15 14 14 13 12 12 11 11 11 11 10 11 11 12 13 15 17 17 17 17 17 17 17 18 18 18 17 17 16 17 17 18 18 19 21 22 23
12 11 11 10 9 9 8 8 8 9 10 10 10 9 9 9 7 8 8 6 7 8 8 7 5 4 5 5 5 4 2 1 3 3 4 5 6 8 10 11 12 13 14 15 15 15 16 16 16 15 15 14 14 13 13 13 13 13 13 12 12 13 14 15 16 18 18 18 18 19 19 19 19 19 20 19 19 18 18 18 18 18 19 20 21
12 11 11 10 9 10 11 12 12 11 10 10 11 10 9 9 7 7 7 7 8 9 8 6 4 4 4 4 4 3 2 2 5 4 4 5 6 9 11 11 13 14 15 16 16 17 17 16 16 16 15 15 15 15 15 15 15 15 15 15 15 15 16 17 18 19 19 19 20 20 21 21 21 21 21 21 21 21 20 19 19 19 19 19 19
13 12 12 13 13 13 14 14 14 12 10 9 10 10 9 9 8 7 6 6 8 10 8 6 5 5 3 3 4 3 2 2 6 4 4 7 8 10 12 13 14 15 17 17 17 18 17 16 16 15 15 15 15 15 16 17 16 16 17 17 18 18 19 20 21 21 22 22 22 22 22 22 22 22 22 22 22 22 22 22 21 21 21 21 20
16 16 15 15 15 14 14 13 13 12 10 8 9 9 8 8 8 7 6 6 7 8 9 8 6 5 4 3 4 3 2 3 5 2 4 8 10 12 13 14 16 17 18 18 17 17 17 16 16 14 14 15 16 16 17 17 18 19 20 21 21 22 23 23 24 25 25 26 25 25 25 25 24 24 23 23 23 23 23 23 23 22 22 22 23
18 17 16 15 14 14 13 12 11 11 10 8 7 7 7 7 6 5 5 5 6 6 8 9 7 5 4 3 2 2 2 4 4 3 6 8 10 13 13 14 17 18 18 17 17 16 16 15 14 13 13 15 17 18 18 18 19 21 22 23 24 24 25 26 26 27 27 28 28 27 27 27 27 26 26 25 24 24 23 23 24 24 24 24 24
18 17 16 15 14 13 12 11 11 10 9 7 6 6 5 5 5 4 4 5 4 3 5 6 4 3 3 1 2 2 4 5 6 7 8 9 11 12 13 14 16 17 16 16 16 15 15 14 12 12 13 15 17 18 18 19 20 21 22 23 24 25 26 26 27 28 28 28 29 29 29 29 29 29 28 28 27 26 25 25 25 25 25 25 25
18 17 16 14 13 13 12 11 10 9 8 6 5 5 4 5 5 4 4 4 4 3 3 3 1 1 2 3 5 6 7 8 8 9 10 12 13 12 14 15 15 15 15 15 15 15 14 12 11 12 13 15 16 17 16 18 20 22 22 23 24 25 26 27 27 28 28 29 30 30 30 31 31 30 30 30 30 29 28 27 27 26 26 26 26
19 17 16 15 13 12 11 9 8 7 7 5 5 5 5 5 5 5 5 5 5 6 5 5 5 5 5 6 7 8 9 9 9 10 11 13 14 15 18 19 16 15 15 16 15 14 13 12 11 13 14 16 16 16 15 17 20 22 23 23 24 25 25 26 27 28 29 29 30 31 31 31 31 32 32 31 32 31 31 30 29 29 28 27 27
19 18 16 15 13 11 10 8 7 7 6 5 6 6 6 6 6 6 6 7 7 7 6 6 6 7 7 8 8 9 9 9 9 11 12 12 14 16 18 20 20 18 17 17 16 15 13 12 12 13 14 16 16 16 16 18 20 22 23 24 25 25 25 26 26 27 28 29 30 31 31 32 32 33 33 33 33 33 33 32 31 31 30 29 28
19 18 16 15 13 11 10 8 7 6 5 6 6 6 6 6 6 7 7 7 7 7 7 7 7 8 9 10 10 11 11 11 11 12 12 13 15 16 17 19 20 19 19 18 17 16 14 13 14 14 15 15 15 16 18 19 22 23 24 25 25 26 26 27 27 27 28 28 29 31 32 34 35 35 36 36 35 35 34 34 33 32 31 30 29
19 18 17 15 13 11 9 7 6 6 6 6 6 5 5 5 6 6 6 7 7 7 7 8 8 9 10 12 13 13 13 13 13 13 13 14 15 17 18 19 21 20 20 19 17 16 14 14 15 16 16 15 15 17 19 21 23 25 27 27 27 28 28 28 28 29 30 30 31 32 33 35 36 37 37 37 37 37 36 35 34 33 31 30 30
19 18 16 15 12 10 8 7 6 6 6 5 4 4 5 5 6 6 6 6 6 7 7 8 9 10 11 13 14 14 13 13 13 13 13 14 16 17 18 19 21 21 20 19 19 16 15 15 15 16 16 16 18 20 21 23 25 26 28 29 29 29 29 30 30 31 32 33 34 35 35 36 36 37 37 38 38 37 37 36 35 34 33 32 32
19 17 16 15 12 10 8 7 7 6 5 4 3 4 4 4 4 5 5 5 5 6 6 7 9 10 12 13 13 13 12 12 13 13 14 14 15 17 18 18 20 20 20 20 19 17 16 15 15 16 16 17 19 22 24 25 27 28 29 29 30 30 31 32 32 33 33 34 35 36 37 37 37 38 38 38 37 37 37 37 36 35 34 34 34
18 17 15 14 12 11 9 7 6 5 4 3 3 3 3 3 3 3 3 3 4 5 6 7 9 10 12 13 13 12 12 12 12 13 14 14 15 15 17 18 20 21 20 20 19 18 18 17 16 17 17 19 21 23 26 27 28 29 30 30 31 31 32 33 34 35 35 35 36 36 36 37 37 38 38 38 38 37 37 36 36 36 36 35 35
18 17 15 14 12 11 9 8 7 5 4 4 2 2 1 1 1 2 2 3 3 4 5 7 9 11 12 13 12 11 11 11 12 13 13 14 14 14 15 16 18 21 22 22 21 20 19 18 18 19 20 21 23 25 27 29 29 30 31 32 33 34 34 35 36 37 37 37 37 37 37 37 37 36 36 37 37 38 38 37 36 36 36 36 35
18 17 16 15 13 11 9 9 8 7 6 4 3 2 1 1 2 2 3 3 3 5 6 7 9 11 12 12 11 11 11 11 11 12 12 13 13 13 14 14 16 18 20 23 25 23 20 20 19 20 22 24 25 26 28 29 31 32 33 34 34 35 36 36 37 38 39 39 39 38 38 38 38 37 37 36 36 37 37 37 36 35 35 34 33
19 18 16 15 14 12 11 10 10 8 7 5 4 3 3 4 4 4 3 3 4 5 6 8 9 11 11 11 11 10 10 11 11 12 12 12 12 12 12 13 14 16 18 21 25 24 22 22 21 21 24 26 27 29 29 30 31 32 33 35 35 36 37 37 38 39 39 39 40 40 40 39 39 38 38 37 36 36 35 36 37 35 33 32 32
20 18 17 15 14 13 13 13 11 9 8 6 5 5 6 6 6 5 4 4 5 5 6 8 9 10 11 11 10 10 10 10 11 11 11 11 11 11 12 13 14 16 17 19 24 25 24 24 24 23 25 27 29 31 32 31 32 33 34 36 36 37 38 39 40 40 39 40 40 40 40 40 39 39 39 38 37 36 34 34 34 34 33 32 31
21 19 17 15 15 15 15 14 12 10 8 8 7 8 8 8 7 6 5 5 5 6 6 8 9 10 10 10 10 10 10 11 11 11 11 11 12 12 12 13 14 15 17 18 23 26 24 24 25 25 27 29 30 31 33 33 34 35 35 36 38 39 40 41 42 42 42 41 41 40 40 39 38 38 38 38 37 36 34 32 31 32 33 32 30
21 19 18 17 16 16 16 14 13 11 10 9 10 10 10 9 8 6 5 5 5 6 6 8 9 10 10 10 10 11 10 11 11 11 12 12 12 12 13 14 14 15 17 18 22 26 26 25 26 27 28 30 32 32 34 35 36 36 37 38 39 40 41 43 43 44 43 42 42 41 40 38 38 37 36 36 36 35 34 32 31 30 31 31 31
21 20 19 18 18 18 17 15 14 13 12 11 12 12 11 10 8 6 6 6 6 6 7 8 9 10 10 10 11 11 11 11 12 12 13 13 13 14 14 15 16 16 17 19 21 25 28 28 28 28 29 31 33 33 34 36 37 38 39 40 41 42 43 43 44 43 42 42 41 39 38 38 37 36 35 34 34 34 34 33 31 30 30 30 31
22 21 20 20 20 19 17 16 15 14 14 13 14 13 11 10 8 6 6 6 6 7 8 9 10 10 11 11 12 12 12 12 13 13 14 14 15 15 16 16 17 17 17 19 21 23 27 30 30 30 31 32 34 35 35 37 38 39 41 42 43 43 43 43 43 42 41 39 38 38 37 37 36 36 36 36 35 34 34 33 31 31 31 31 30
24 23 22 22 21 20 18 17 16 15 15 15 15 13 12 10 9 7 7 7 7 8 9 10 11 11 12 12 12 13 13 13 14 15 15 16 16 17 17 18 18 18 18 19 20 22 26 29 31 31 32 33 34 36 37 38 39 40 41 43 44 45 44 43 41 40 40 38 38 37 37 37 38 38 37 37 36 34 34 34 33 32 32 32 30
25 25 24 23 22 21 19 17 17 16 16 16 15 14 13 12 10 8 8 8 9 9 10 11 12 12 13 13 13 14 14 14 15 16 16 17 18 18 19 19 19 19 20 20 21 22 25 28 30 31 32 33 35 36 37 39 41 42 43 43 44 45 44 42 40 40 40 40 39 39 39 40 41 41 40 38 37 36 34 33 33 32 32 32 31
27 26 25 24 23 21 19 18 18 18 18 17 16 15 14 13 11 10 10 10 10 11 12 12 13 14 14 14 14 14 15 16 16 17 17 18 19 19 20 20 20 21 21 21 22 23 25 27 29 31 32 34 36 38 39 40 43 44 44 45 45 43 42 42 41 41 41 41 41 41 41 43 43 41 40 38 39 39 36 33 32 32 32 33 32
29 28 26 25 23 21 20 20 20 19 19 18 17 16 16 14 13 12 11 12 12 13 13 14 15 15 15 15 15 16 16 17 17 17 18 19 19 20 20 21 21 22 22 22 23 24 26 27 29 31 33 34 36 38 40 40 42 41 40 43 46 45 42 42 43 43 44 44 43 44 45 44 43 41 40 41 41 40 37 33 31 31 33 33 31
30 28 27 25 24 23 22 21 21 21 20 20 19 18 17 16 15 14 13 13 14 14 15 16 16 17 17 17 17 17 17 18 18 18 19 20 21 21 22 22 23 23 23 23 24 25 26 28 30 31 33 35 37 38 39 39 40 39 36 37 43 46 46 45 45 43 44 45 45 47 46 41 41 46 48 47 44 39 36 32 30 32 34 33 30
31 29 27 26 25 25 24 23 23 23 22 21 20 19 19 17 17 16 15 15 16 16 17 17 18 19 19 19 18 18 18 19 19 19 20 21 22 22 23 23 23 24 24 24 25 26 27 29 30 31 33 36 37 37 38 37 35 37 37 37 41 46 46 48 48 43 41 44 46 47 45 41 44 50 49 45 41 36 33 30 31 36 37 32 30
32 30 29 29 28 26 26 25 25 25 23 22 21 20 19 19 19 18 17 17 18 18 19 19 20 20 20 20 19 19 19 19 20 20 20 21 23 24 25 25 25 25 25 25 26 26 28 29 30 31 34 36 35 34 36 35 33 34 37 38 42 46 47 49 51 43 37 41 47 51 52 48 47 49 44 39 36 31 28 31 37 40 36 31 30
33 32 31 31 29 28 28 27 26 26 24 23 22 21 21 21 21 20 19 19 20 21 21 21 21 22 21 21 21 20 20 20 20 20 21 21 23 24 25 26 26 26 26 27 27 27 28 30 30 31 32 34 33 32 32 34 33 34 36 38 40 43 41 40 42 42 40 44 50 56 56 48 42 42 39 34 31 29 32 37 39 36 32 30 30
34 34 33 32 31 30 29 29 28 27 25 24 23 23 23 23 23 22 21 22 22 23 23 23 23 23 23 22 22 22 21 21 21 21 21 21 22 24 25 26 26 27 27 27 27 28 29 30 30 30 30 31 32 31 29 31 32 33 35 36 35 35 35 36 40 45 47 48 49 53 50 42 38 38 36 34 34 36 37 35 32 31 32 32 32
36 35 34 33 32 31 31 30 29 29 27 26 25 25 25 25 24 24 24 24 25 25 25 25 25 25 24 24 24 23 22 22 22 22 22 22 23 24 25 26 27 27 27 27 27 28 29 29 30 30 28 28 30 29 27 28 30 32 33 34 34 35 39 43 45 47 46 45 45 47 46 40 37 38 39 38 36 33 33 33 32 33 33 32 30
37 36 35 34 34 33 32 31 31 30 29 28 27 27 27 26 26 26 26 26 27 27 27 27 27 26 26 26 26 25 23 23 23 23 23 23 24 25 26 26 27 27 27 27 27 27 28 27 29 30 27 24 26 27 26 26 28 31 33 36 39 40 42 42 42 43 42 39 39 41 42 39 37 39 41 38 33 31 34 36 35 33 32 30 28
37 36 36 35 35 33 32 32 32 32 31 29 29 29 29 28 29 29 29 29 29 29 29 29 29 28 28 28 29 27 25 24 24 24 24 25 25 27 27 27 28 28 28 28 27 27 28 28 29 28 25 21 21 23 25 27 29 32 34 36 37 37 38 39 39 39 37 35 35 35 36 36 35 35 40 39 37 37 39 38 35 32 30 29 28
37 37 36 36 35 34 33 33 34 33 32 31 31 31 31 31 31 31 32 32 32 32 31 31 30 30 30 30 30 28 27 25 25 24 25 26 27 28 28 28 28 29 29 28 27 27 28 28 27 24 20 19 20 22 26 29 31 32 32 33 32 33 35 37 38 37 36 35 34 31 30 33 33 35 40 41 40 41 41 39 37 34 30 29 30
38 38 37 36 35 35 34 34 35 34 33 32 32 33 33 33 33 34 34 35 35 35 34 33 33 33 32 31 30 29 29 27 26 25 25 26 28 29 29 29 29 30 30 28 27 28 27 25 22 20 20 21 23 24 25 26 27 29 30 31 31 31 33 35 36 37 36 35 32 27 27 32 34 36 41 41 40 41 42 40 37 35 34 32 31
37 37 36 35 35 35 35 35 35 35 34 33 33 34 35 35 35 36 37 37 37 37 36 35 35 35 33 32 31 31 30 28 27 26 26 27 29 30 30 30 31 31 30 29 29 29 27 25 24 23 23 23 24 24 24 24 24 26 27 29 29 30 31 32 33 36 36 34 30 28 31 34 34 35 39 43 42 40 38 38 39 39 38 37 35
37 36 36 35 35 35 36 36 36 36 35 34 34 35 36 37 37 37 38 39 39 38 37 36 36 35 33 32 32 31 31 29 28 28 27 28 30 30 30 31 32 32 30 29 29 30 29 28 28 26 24 23 23 23 22 22 23 24 25 26 27 27 28 29 30 32 35 34 30 28 31 33 33 33 35 39 43 42 39 38 41 42 40 39 37
Wind_Direction
220 218 216 208 205 212 228 214 206 220 233 231 235 277 278 250 325 346 329 329 336 353 18 20 14 18 14 7 8 13 16 18 18 17 15 11 6 1 356 351 348 345 341 336 331 326 322 317 313 312 311 310 307 302 296 286 277 272 276 278 282 288 292 295 297 298 299 299 297 298 305 314 319 316 317 322 325 323 320 328 333 326 320 326 331
217 212 211 213 220 228 228 217 214 222 230 222 239 281 271 251 281 290 300 322 327 343 7 12 358 355 360 355 357 11 14 13 11 5 359 352 350 348 344 342 340 337 334 331 328 325 323 322 317 312 308 307 305 304 302 297 290 285 284 283 282 284 288 292 292 292 294 295 296 297 299 304 310 312 313 316 320 320 315 321 327 324 314 319 327
228 227 227 232 238 240 234 232 234 233 229 221 226 242 243 244 248 253 270 294 308 330 353 350 338 347 355 347 350 12 10 6 3 356 350 343 342 342 341 342 340 338 335 333 331 329 328 328 324 321 317 313 312 309 305 304 301 296 294 293 288 286 286 287 288 289 291 294 295 295 296 299 301 301 303 308 312 308 304 311 319 323 318 314 319
228 230 231 234 236 237 238 245 243 226 215 213 219 217 212 218 221 243 258 260 279 317 321 312 328 346 346 343 355 7 359 356 351 347 344 337 336 339 341 344 344 344 343 342 342 340 338 337 334 333 329 324 322 318 317 319 315 307 305 305 301 298 294 289 288 289 291 294 295 294 295 297 296 292 288 293 300 294 293 302 309 314 314 311 313
221 222 222 225 230 235 234 232 220 203 198 200 205 203 205 215 222 247 255 237 239 256 282 287 325 336 336 346 358 354 344 342 340 340 337 333 335 340 345 347 350 352 354 356 355 353 351 348 345 342 337 332 330 338 347 344 335 328 324 322 323 325 315 301 294 292 293 294 295 295 296 296 295 289 280 280 288 288 288 296 297 295 300 307 311
223 221 217 214 212 207 203 207 198 187 191 196 197 201 211 223 230 243 242 193 206 197 205 264 315 327 334 355 356 341 336 341 342 341 336 335 340 348 353 357 1 4 6 9 8 7 6 3 360 354 348 341 337 351 1 356 359 1 356 352 348 337 321 309 304 299 298 298 297 297 297 297 296 292 282 276 278 282 284 287 287 286 294 301 305
232 224 207 199 194 192 193 197 196 195 202 199 199 209 218 232 233 220 168 152 168 174 226 297 315 320 332 344 348 345 345 347 341 337 339 343 354 6 12 16 17 18 18 19 19 19 18 17 15 12 6 359 353 353 352 354 11 17 14 8 354 332 323 320 317 311 306 304 302 301 299 298 297 295 291 283 277 276 277 280 281 283 288 293 297
235 214 193 195 196 200 204 204 210 214 210 203 206 220 227 232 217 169 154 182 200 223 268 298 288 236 275 316 343 347 341 340 335 340 354 7 22 30 32 32 31 29 27 24 23 23 22 20 19 18 14 11 9 5 359 358 7 11 10 9 359 348 344 339 332 326 321 315 311 308 306 302 298 297 296 292 285 277 275 276 278 279 279 283 290
222 205 197 203 205 210 217 219 226 227 220 218 218 222 221 213 199 179 180 203 213 208 221 222 212 208 211 288 334 339 335 341 358 25 38 42 46 45 41 38 36 33 31 28 26 23 21 20 19 16 12 10 10 8 6 3 1 360 2 6 4 360 359 353 344 338 336 331 325 319 314 311 306 301 298 296 294 288 281 276 275 276 277 277 282
195 197 206 211 212 215 221 224 225 221 217 219 219 217 215 212 199 177 167 176 183 178 194 203 194 193 195 181 352 347 8 39 59 68 64 60 56 48 42 37 32 27 26 25 22 19 14 12 11 9 7 5 3 0 357 355 354 352 350 356 357 354 358 356 347 342 343 341 339 334 327 323 318 312 306 302 300 297 293 286 279 276 276 275 275
186 195 206 208 210 212 214 214 209 208 209 210 208 197 179 118 98 110 123 144 173 188 194 195 183 179 183 152 119 82 74 78 80 77 69 65 57 43 32 26 21 17 13 13 11 8 4 1 0 359 360 358 355 351 348 344 340 339 338 340 346 347 348 349 343 340 339 339 339 339 336 333 330 324 318 312 308 305 301 297 291 283 278 276 274
183 190 195 196 199 200 200 198 196 197 195 186 167 141 117 105 105 104 112 135 154 167 181 191 182 165 157 144 114 94 83 77 67 52 43 39 37 20 7 5 4 2 2 4 3 359 358 356 355 354 354 352 350 345 341 339 334 331 331 330 335 338 341 343 341 336 333 334 334 334 333 332 332 329 326 321 316 312 309 305 301 295 288 282 278
179 183 186 191 195 196 196 194 190 178 163 149 136 127 119 114 111 108 111 126 138 149 165 185 190 165 151 146 125 111 99 74 25 5 352 350 358 355 351 350 350 354 357 358 357 356 355 355 354 352 350 347 345 342 337 334 331 328 328 328 328 329 331 336 337 333 331 331 330 328 328 327 327 326 325 323 319 316 314 311 308 304 300 293 285
182 185 191 199 198 191 185 175 162 150 144 137 129 126 120 114 109 110 117 123 127 140 156 174 199 190 161 155 145 138 132 39 353 346 340 343 351 349 346 343 344 351 353 353 352 352 353 354 353 350 347 345 342 341 337 333 331 330 329 327 326 325 326 328 331 331 330 330 329 328 325 323 322 321 321 319 317 314 311 310 310 309 307 304 298
191 193 194 188 177 168 161 151 142 139 142 137 132 129 122 120 121 117 119 120 122 133 152 173 198 188 174 174 164 160 159 6 352 341 334 348 351 345 343 341 344 348 348 348 348 350 352 351 351 348 344 342 341 340 338 335 335 334 332 330 329 328 328 329 330 330 330 330 330 329 327 324 321 319 318 318 316 313 309 307 306 307 307 306 307
184 177 171 161 154 154 152 146 141 141 145 140 134 131 127 125 122 113 108 114 121 132 149 172 196 192 195 202 194 191 182 343 344 334 332 342 339 339 342 340 342 344 345 347 348 349 350 349 349 346 342 340 338 337 337 337 337 338 337 336 336 335 334 334 335 334 333 332 331 330 328 327 324 322 319 317 316 314 310 307 303 303 303 304 305
163 158 157 153 153 153 151 150 146 141 141 139 134 130 127 122 115 114 112 107 114 128 142 159 183 197 210 206 198 204 216 324 338 321 320 327 331 339 341 338 340 343 344 346 348 348 346 347 347 344 341 338 333 334 338 339 340 341 342 342 342 341 340 339 338 337 335 334 333 331 330 328 326 325 322 320 317 316 314 310 306 301 299 299 300
155 155 157 157 157 154 152 150 143 138 140 140 133 126 124 119 111 111 109 96 101 123 140 154 172 186 196 198 198 223 279 331 339 316 311 318 329 335 334 337 340 341 343 344 345 348 346 346 347 344 340 334 332 337 343 344 343 345 345 345 344 343 342 341 338 336 335 334 333 332 331 329 328 326 325 323 320 317 316 313 310 306 301 297 295
157 157 159 160 157 151 148 146 142 140 140 137 128 120 116 109 100 85 80 84 93 116 133 146 166 188 200 238 308 318 332 339 336 328 320 319 325 327 327 334 339 338 342 345 346 349 349 348 348 345 340 337 339 342 344 344 344 345 344 344 343 341 340 338 336 334 333 333 332 331 331 329 328 328 326 325 322 319 317 314 313 311 308 302 296
161 161 159 157 154 149 147 148 146 139 133 130 119 109 95 85 83 68 63 68 65 61 78 96 90 39 19 360 353 350 348 344 340 336 329 324 326 329 328 335 344 344 345 350 353 354 354 356 355 348 344 342 343 343 342 340 341 342 343 342 340 337 335 334 333 333 332 331 331 330 330 330 329 329 328 326 325 323 320 316 314 312 311 308 301
163 161 158 154 154 151 150 149 143 131 125 121 102 91 81 72 70 63 54 50 46 44 47 50 40 34 29 13 4 358 351 346 342 338 332 328 329 334 334 336 346 351 350 354 359 1 360 2 359 350 347 346 344 343 339 335 337 340 340 339 335 333 333 332 331 331 330 330 330 330 330 330 330 329 329 327 326 324 322 319 316 313 310 308 306
163 160 158 156 155 153 149 143 133 124 117 100 83 77 71 63 56 50 40 34 36 35 32 35 34 29 22 11 4 357 349 345 340 336 335 332 331 336 337 337 342 349 352 356 0 2 3 5 358 351 349 348 346 344 340 336 334 335 335 333 331 331 332 331 331 330 330 330 330 331 331 330 330 329 328 327 325 324 322 321 318 315 312 310 308
164 162 160 159 158 152 147 140 128 116 100 83 74 66 60 51 40 36 31 26 28 26 21 22 21 15 10 3 358 352 347 343 340 338 338 335 333 336 338 336 338 344 347 351 355 358 1 2 356 353 352 351 348 345 340 335 332 330 331 332 332 332 331 331 330 330 330 331 330 330 330 330 329 328 326 325 324 322 321 319 318 317 315 311 307
167 165 163 160 158 151 144 137 121 105 91 79 72 62 52 43 35 31 26 21 20 16 12 10 6 3 360 355 351 348 344 341 339 338 337 335 334 335 336 334 334 337 340 342 347 351 355 358 355 352 352 351 348 344 338 334 332 330 331 332 333 332 331 331 330 330 330 330 330 330 329 329 328 327 325 323 322 320 318 317 315 314 313 309 306
170 168 164 159 155 151 144 133 117 105 95 84 77 65 52 43 37 28 20 18 15 9 2 358 356 355 353 351 349 345 341 338 337 336 336 335 333 332 332 331 329 330 333 334 339 346 350 353 352 349 349 348 344 340 336 333 332 332 331 332 332 331 331 331 330 330 330 329 329 328 328 328 327 326 325 323 321 318 316 314 312 311 309 308 307
171 169 165 159 156 153 145 135 124 116 108 100 87 70 58 45 33 23 15 11 4 359 352 349 350 350 351 350 348 344 339 336 335 333 332 330 328 326 324 325 324 325 328 330 334 339 341 347 350 346 346 345 340 336 333 332 331 331 331 330 330 330 329 329 329 328 329 328 327 326 326 326 325 325 324 322 320 318 315 313 311 309 307 306 305
172 170 168 162 159 157 149 144 139 134 130 121 99 78 67 41 22 11 2 354 350 347 342 344 349 350 351 351 347 342 336 332 330 326 324 321 320 320 321 324 324 323 326 326 329 334 335 340 346 344 343 341 337 335 333 331 331 330 330 329 329 329 328 327 327 327 327 326 325 325 324 324 324 323 322 321 320 317 315 312 310 308 305 303 302
175 173 171 165 164 162 156 157 160 159 158 151 135 114 84 17 348 331 327 329 332 335 337 343 348 349 350 347 342 339 333 329 326 321 318 317 317 318 320 323 323 323 324 323 325 330 331 335 341 340 338 337 334 333 332 330 331 330 329 329 328 328 327 325 325 325 324 324 323 323 323 322 322 322 320 319 318 316 314 312 310 307 306 305 303
180 178 176 171 168 168 170 174 179 180 178 173 173 185 214 250 266 279 291 304 316 326 333 340 344 346 346 341 337 336 330 326 323 318 315 314 313 315 316 318 319 319 320 319 320 325 326 330 337 336 333 333 331 331 330 330 330 330 329 329 328 327 325 324 323 322 321 321 321 321 321 321 321 321 319 318 316 314 313 312 311 309 307 306 305
185 183 181 177 174 177 184 189 192 190 190 191 198 217 233 242 251 257 267 285 302 317 327 335 342 343 342 338 334 333 329 324 320 315 311 309 308 308 310 312 313 313 314 312 313 319 323 326 332 333 329 329 329 329 330 331 330 330 329 327 327 325 323 322 321 320 319 319 319 319 319 319 320 319 319 318 316 314 313 311 311 311 308 305 304
189 188 186 184 185 189 193 197 201 199 199 206 215 229 238 243 246 250 262 281 297 313 326 336 343 342 339 336 333 332 329 323 318 311 306 304 302 303 305 306 306 306 307 305 306 313 320 321 324 328 327 327 329 328 329 331 331 330 328 327 326 323 321 319 318 318 318 318 318 318 318 318 318 318 318 317 316 315 314 312 310 310 308 307 305
192 192 192 193 195 199 200 202 205 208 212 216 224 234 239 242 243 250 266 282 297 313 330 340 343 340 336 332 331 331 328 320 314 305 300 298 297 298 298 299 299 299 301 300 301 308 315 316 318 324 326 326 328 329 328 330 331 329 328 327 324 322 320 318 317 317 317 317 317 317 317 317 317 316 315 315 315 315 315 315 313 309 308 310 309
196 196 198 201 202 205 206 208 211 216 220 222 231 238 240 241 243 251 270 285 298 314 331 339 340 336 331 329 329 328 324 317 309 300 296 294 292 292 291 291 292 293 294 296 299 305 311 314 316 321 324 325 326 328 329 329 329 328 327 326 323 320 319 317 316 316 317 317 317 317 317 317 316 315 314 313 314 315 316 316 315 312 310 311 310
201 202 205 206 207 209 211 213 217 220 222 228 236 241 240 241 244 253 271 286 298 310 325 332 333 331 328 327 327 325 320 314 307 300 295 292 289 289 287 287 288 288 290 294 298 303 308 312 315 318 322 323 325 327 328 328 327 326 325 324 321 319 319 318 317 317 317 318 318 318 317 316 315 315 315 316 316 316 317 317 315 313 312 311 310
206 207 210 211 212 214 215 218 222 223 227 233 238 241 242 242 243 253 269 282 293 304 315 322 325 325 324 324 323 321 319 313 308 302 297 293 290 287 286 285 285 286 287 292 297 301 305 309 313 317 320 322 324 325 326 325 324 324 323 322 321 319 319 319 318 318 318 319 319 318 317 316 316 316 317 318 319 319 318 318 315 312 311 312 311
211 211 212 214 216 218 220 223 226 228 232 237 239 241 242 242 244 254 267 277 286 297 306 313 317 318 318 319 318 318 317 314 309 303 297 293 289 286 286 285 284 286 287 290 294 298 302 306 311 316 319 321 323 323 323 323 322 323 322 321 320 319 319 320 319 319 319 319 318 317 317 318 319 319 320 320 321 320 318 316 313 311 311 311 309
214 215 216 217 218 221 225 228 230 232 236 239 241 242 243 243 247 255 263 272 282 291 299 304 308 309 310 311 313 314 314 313 309 303 297 291 288 286 286 285 285 285 286 289 292 295 300 304 309 313 317 319 320 320 322 323 322 323 322 321 320 319 319 319 319 321 321 320 319 319 319 321 322 322 321 321 320 319 316 313 311 311 311 311 310
217 218 219 221 223 225 227 230 231 234 238 240 241 243 245 246 250 254 261 269 279 287 293 297 300 301 302 304 307 310 311 311 308 303 297 291 287 286 286 286 285 285 286 289 292 295 299 303 306 311 314 317 319 320 322 323 323 323 322 320 318 318 318 319 321 324 325 322 321 322 323 323 322 321 320 319 319 318 315 311 309 309 312 314 314
220 221 222 224 226 228 229 230 232 235 238 240 241 243 247 249 251 254 259 268 278 284 289 293 295 295 296 297 301 306 307 307 306 303 299 292 288 286 285 284 284 284 287 289 291 295 298 302 305 310 314 316 318 320 321 322 322 323 323 321 318 318 322 324 325 327 328 326 326 325 324 323 321 320 319 318 317 317 314 311 308 309 315 318 316
223 224 226 228 228 229 230 230 232 235 238 240 242 246 249 250 252 255 260 268 276 283 287 291 293 292 291 292 295 301 304 304 303 302 299 294 289 286 284 284 284 285 287 288 291 294 297 301 305 309 313 315 317 319 320 322 322 322 324 325 321 321 325 327 327 329 328 327 326 324 323 322 319 318 318 318 318 318 314 310 307 312 319 319 313
226 227 227 229 230 231 231 231 232 235 238 241 245 248 250 251 253 256 261 268 276 281 285 290 292 291 289 288 291 296 299 301 301 300 299 294 289 287 284 283 284 285 287 288 291 294 298 301 305 309 312 314 316 319 319 321 323 322 325 328 325 325 327 326 326 328 327 325 323 321 319 317 316 317 317 318 320 319 316 312 312 317 320 315 308
228 228 228 229 230 232 233 233 235 237 239 242 245 247 250 253 254 257 262 269 275 280 284 288 291 291 288 286 288 292 295 297 298 299 298 295 291 289 287 286 286 286 288 289 292 295 298 301 305 308 310 312 315 318 317 318 324 326 328 329 325 324 326 325 324 326 326 323 319 316 315 315 316 317 318 320 323 323 318 313 311 314 315 310 305
229 230 230 231 232 233 234 235 237 239 242 244 244 247 251 254 255 258 263 269 274 279 283 287 290 290 288 286 285 287 290 293 296 298 298 295 292 289 287 287 287 288 289 290 293 295 298 301 304 306 307 309 312 314 316 321 327 329 328 326 323 322 324 324 322 320 320 319 315 313 316 319 320 319 320 322 321 315 308 306 308 312 312 308 305
232 232 233 233 234 235 236 237 238 240 242 243 244 248 253 255 257 260 264 269 274 278 282 286 288 289 288 286 283 284 286 290 293 296 297 295 292 288 286 285 285 286 287 289 291 294 297 299 300 301 304 306 309 314 322 326 326 326 323 320 318 317 315 312 310 310 314 318 316 314 316 319 320 317 314 312 310 307 306 308 310 311 309 307 306
235 235 235 236 236 237 238 239 241 242 242 242 243 249 253 255 258 261 265 270 274 278 281 285 287 288 288 286 282 281 283 287 291 294 295 295 293 288 285 284 283 283 284 285 288 291 292 294 295 298 303 308 310 317 326 326 322 320 316 312 309 307 306 306 306 309 315 319 318 314 313 315 318 315 312 313 317 317 314 312 312 311 310 309 309
237 237 238 238 239 240 241 242 244 244 243 242 245 249 253 256 259 263 266 270 274 278 281 284 286 287 288 287 283 280 280 284 288 291 294 295 294 291 287 284 283 282 282 283 286 288 288 289 292 297 305 312 314 319 323 320 313 309 304 303 304 305 306 308 309 312 316 320 320 315 312 317 323 321 318 320 321 316 311 310 313 314 313 311 310
240 241 241 242 243 243 244 245 246 246 245 244 247 250 254 256 260 264 267 271 275 278 281 282 285 286 286 286 283 279 279 283 286 289 291 294 294 292 290 287 285 283 281 283 285 285 284 286 293 300 309 315 315 314 311 304 298 297 297 299 303 306 307 309 312 315 319 323 324 319 315 320 326 322 317 316 315 313 312 314 317 318 314 309 307
243 244 244 244 245 246 247 247 247 248 248 246 248 252 255 257 260 265 269 273 276 278 280 282 284 285 285 284 282 280 279 281 284 286 288 291 292 292 292 289 286 284 282 283 284 282 285 292 298 303 306 306 301 297 294 293 295 297 300 303 306 307 309 312 316 320 325 328 329 325 317 318 321 318 315 318 318 317 317 319 322 323 319 312 307
246 247 247 246 248 249 249 249 249 250 251 250 251 254 257 259 261 265 270 274 276 279 281 282 283 283 283 282 280 278 278 280 283 284 286 288 291 292 292 290 287 285 284 284 282 283 289 295 293 290 292 295 295 294 293 295 297 300 303 307 310 311 312 315 319 322 327 330 332 328 318 316 321 322 320 320 320 319 322 325 325 325 322 318 313
250 252 251 250 251 252 251 251 251 252 254 253 254 256 259 261 263 267 270 273 275 278 280 281 283 283 283 282 279 278 279 280 282 283 284 287 289 291 291 290 287 286 285 285 284 287 291 292 288 290 298 301 299 296 295 296 298 300 305 308 311 312 313 316 320 322 325 331 335 330 323 322 326 326 324 323 322 323 325 325 324 324 323 322 322
253 255 255 254 254 254 254 254 253 254 256 255 255 257 259 262 264 267 270 272 274 276 278 280 282 282 282 281 279 277 278 280 281 283 284 285 288 289 289 287 286 285 285 284 284 286 288 289 292 299 304 302 297 294 294 297 300 303 306 307 309 312 314 317 320 321 323 331 339 336 328 326 325 325 327 325 322 322 324 323 323 324 323 322 322